Alicia, AR

3:08 PM CDT on July 24, 2016 (GMT -0500)
Walnut Ridge Regional

Weather History for KARG - February, 2012

Change the Weather History Date:

Wednesday, February 29, 2012

  Actual Average Record
Temperature  
Mean Temperature 65 °F -  
Max Temperature 77 °F 50 °F 77 °F (2012)
Min Temperature 53 °F 34 °F 39 °F (2016)
Growing Degree Days 15 (Base 50)    
Moisture  
Dew Point 48 °F    
Average Humidity 58    
Maximum Humidity 94    
Minimum Humidity 21    
Precipitation  
Precipitation 0.30 in - - ()
Sea Level Pressure  
Sea Level Pressure 29.82 in    
Wind  
Wind Speed 18 mph (WSW)    
Max Wind Speed 30 mph    
Max Gust Speed 38 mph    
Visibility 10 miles    
Events Thunderstorm    
Averages and records for this station are not official NWS values.
T = Trace of Precipitation, MM = Missing Value Source: NWS Daily Summary

Daily Weather History Graph

Daily Weather History Graph

Search for Another Location

Airport or City:

Trip Planner

Search our weather history database for the weather conditions in past years. The results will help you decide how hot, cold, wet, or windy it might be!

Date:

Astronomy

Feb. 29, 2012 Rise Set
Actual Time 6:34 AM CST 5:58 PM CST
Civil Twilight 6:08 AM CST 6:23 PM CST
Nautical Twilight 5:39 AM CST 6:53 PM CST
Astronomical Twilight 5:09 AM CST 7:23 PM CST
Moon 10:39 AM CST (2/29) 12:31 AM CST (2/29)
Length of Visible Light 12h 15m
Length of Day
11h 23m
Waxing Crescent, 47% of the Moon is Illuminated
Feb 29
Waxing Crescent
Feb 29
First Quarter
Mar 8
Full
Mar 14
Last Quarter
Mar 22
New

Hourly Weather History & Observations

Time (CST) Temp. Dew Point Humidity Pressure Visibility Wind Dir Wind Speed Gust Speed Precip Events Conditions
12:15 AM 66.2 °F 62.6 °F 88% 29.83 in 10.0 mi SSW 26.5 mph 33.4 mph N/A   Overcast
12:35 AM 66.2 °F 64.4 °F 94% 29.82 in 10.0 mi South 23.0 mph 33.4 mph N/A   Overcast
12:55 AM 66.2 °F 64.4 °F 94% 29.80 in 10.0 mi South 23.0 mph 31.1 mph N/A   Overcast
1:15 AM 66.2 °F 64.4 °F 94% 29.79 in 10.0 mi South 23.0 mph 31.1 mph N/A   Overcast
1:35 AM 66.2 °F 64.4 °F 94% 29.78 in 10.0 mi SSW 24.2 mph 35.7 mph N/A   Overcast
2:15 AM 68.0 °F 64.4 °F 88% 29.78 in 10.0 mi SSW 29.9 mph 38.0 mph N/A   Overcast
2:35 AM 68.0 °F 64.4 °F 88% 29.78 in 10.0 mi SSW 27.6 mph 35.7 mph N/A   Overcast
2:55 AM 69.8 °F 64.4 °F 83% 29.80 in 10.0 mi SSW 28.8 mph 33.4 mph N/A   Overcast
3:15 AM 69.8 °F 62.6 °F 78% 29.80 in 10.0 mi SSW 23.0 mph 32.2 mph N/A   Scattered Clouds
3:35 AM 69.8 °F 62.6 °F 78% 29.79 in 10.0 mi SSW 28.8 mph 34.5 mph N/A   Partly Cloudy
3:55 AM 69.8 °F 62.6 °F 78% 29.80 in 10.0 mi SSW 21.9 mph 33.4 mph N/A   Mostly Cloudy
4:15 AM 68.0 °F 62.6 °F 83% 29.78 in 10.0 mi SSW 29.9 mph 36.8 mph N/A   Partly Cloudy
4:35 AM 68.0 °F 62.6 °F 83% 29.80 in 10.0 mi SSW 21.9 mph 25.3 mph N/A   Scattered Clouds
4:55 AM 68.0 °F 62.6 °F 83% 29.80 in 10.0 mi SSW 24.2 mph 31.1 mph N/A   Mostly Cloudy
5:15 AM 68.0 °F 62.6 °F 83% 29.81 in 10.0 mi SSW 21.9 mph - N/A   Scattered Clouds
5:35 AM 68.0 °F 62.6 °F 83% 29.81 in 10.0 mi SSW 21.9 mph 27.6 mph N/A   Partly Cloudy
5:55 AM 68.0 °F 62.6 °F 83% 29.84 in 10.0 mi WNW 15.0 mph - N/A   Mostly Cloudy
6:15 AM 64.4 °F 42.8 °F 45% 29.81 in 10.0 mi NW 5.8 mph - N/A Thunderstorm Overcast
6:35 AM 55.4 °F 48.2 °F 77% 29.86 in 10.0 mi West 13.8 mph 31.1 mph 0.05 in Thunderstorm Thunderstorm
6:55 AM 53.6 °F 48.2 °F 82% 29.84 in 10.0 mi WSW 6.9 mph - 0.05 in Thunderstorm Overcast
7:15 AM 55.4 °F 48.2 °F 77% 29.86 in 10.0 mi WSW 9.2 mph - 0.12 in Thunderstorm Thunderstorm
7:35 AM 53.6 °F 48.2 °F 82% 29.84 in 10.0 mi SSE 6.9 mph - 0.15 in Thunderstorm Mostly Cloudy
7:55 AM 53.6 °F 46.4 °F 77% 29.86 in 10.0 mi SW 10.4 mph - 0.25 in Thunderstorm Mostly Cloudy
8:15 AM 55.4 °F 48.2 °F 77% 29.85 in 8.0 mi SW 6.9 mph - N/A   Mostly Cloudy
8:35 AM 55.4 °F 48.2 °F 77% 29.86 in 10.0 mi SW 5.8 mph - N/A   Mostly Cloudy
8:55 AM 55.4 °F 48.2 °F 77% 29.85 in 10.0 mi South 5.8 mph - N/A   Overcast
9:15 AM 57.2 °F 51.8 °F 82% 29.86 in 10.0 mi SSW 5.8 mph - N/A   Overcast
9:55 AM 60.8 °F 51.8 °F 72% 29.84 in 10.0 mi Calm Calm - N/A   Mostly Cloudy
10:15 AM 62.6 °F 48.2 °F 59% 29.84 in 8.0 mi Calm Calm - N/A   Overcast
10:35 AM 62.6 °F 44.6 °F 52% 29.85 in 10.0 mi SSW 4.6 mph - N/A   Overcast
10:55 AM 64.4 °F 44.6 °F 49% 29.85 in 10.0 mi WSW 5.8 mph - N/A   Mostly Cloudy
11:35 AM 66.2 °F 46.4 °F 49% 29.85 in 10.0 mi West 6.9 mph - N/A   Scattered Clouds
11:55 AM 66.2 °F 44.6 °F 46% 29.84 in 10.0 mi WSW 9.2 mph - N/A   Mostly Cloudy
12:15 PM 69.8 °F 44.6 °F 40% 29.83 in 10.0 mi WSW 12.7 mph - N/A   Scattered Clouds
12:35 PM 69.8 °F 46.4 °F 43% 29.81 in 10.0 mi SW 11.5 mph - N/A   Clear
12:55 PM 71.6 °F 51.8 °F 50% 29.80 in 10.0 mi SW 13.8 mph - N/A   Clear
1:15 PM 71.6 °F 53.6 °F 53% 29.79 in 10.0 mi SW 12.7 mph - N/A   Clear
1:35 PM 73.4 °F 55.4 °F 53% 29.78 in 10.0 mi SW 13.8 mph 20.7 mph N/A   Clear
1:55 PM 73.4 °F 53.6 °F 50% 29.77 in 10.0 mi WSW 11.5 mph - N/A   Clear
2:15 PM 75.2 °F 51.8 °F 44% 29.76 in 10.0 mi WSW 10.4 mph - N/A   Clear
2:35 PM 77.0 °F 44.6 °F 32% 29.76 in 10.0 mi WSW 10.4 mph 24.2 mph N/A   Clear
2:55 PM 77.0 °F 39.2 °F 26% 29.76 in 10.0 mi WNW 15.0 mph 18.4 mph N/A   Clear
3:15 PM 75.2 °F 33.8 °F 22% 29.76 in 10.0 mi West 16.1 mph 21.9 mph N/A   Clear
3:35 PM 75.2 °F 33.8 °F 22% 29.76 in 10.0 mi West 13.8 mph - N/A   Clear
3:55 PM 75.2 °F 32.0 °F 21% 29.76 in 10.0 mi West 15.0 mph 19.6 mph N/A   Clear
4:15 PM 73.4 °F 33.8 °F 23% 29.77 in 10.0 mi WNW 17.3 mph - N/A   Clear
4:35 PM 71.6 °F 30.2 °F 22% 29.78 in 10.0 mi West 15.0 mph 23.0 mph N/A   Clear
4:55 PM 69.8 °F 32.0 °F 25% 29.79 in 10.0 mi WNW 17.3 mph 24.2 mph N/A   Clear
5:15 PM 68.0 °F 30.2 °F 24% 29.79 in 10.0 mi WNW 18.4 mph 24.2 mph N/A   Clear
5:35 PM 66.2 °F 33.8 °F 30% 29.80 in 10.0 mi WNW 12.7 mph - N/A   Clear
6:15 PM 62.6 °F 33.8 °F 34% 29.83 in 10.0 mi WNW 10.4 mph - N/A   Clear
6:35 PM 62.6 °F 33.8 °F 34% 29.84 in 10.0 mi WNW 11.5 mph 16.1 mph N/A   Clear
6:55 PM 62.6 °F 30.2 °F 30% 29.85 in 10.0 mi West 15.0 mph 18.4 mph N/A   Clear
7:15 PM 60.8 °F 30.2 °F 31% 29.85 in 10.0 mi West 12.7 mph - N/A   Clear
7:35 PM 60.8 °F 32.0 °F 34% 29.86 in 10.0 mi WNW 16.1 mph - N/A   Clear
7:55 PM 60.8 °F 30.2 °F 31% 29.86 in 10.0 mi NW 21.9 mph 29.9 mph N/A   Clear
8:15 PM 60.8 °F 28.4 °F 29% 29.88 in 10.0 mi West 11.5 mph - N/A   Clear
8:35 PM 60.8 °F 28.4 °F 29% 29.89 in 10.0 mi West 9.2 mph - N/A   Clear
8:55 PM 57.2 °F 28.4 °F 33% 29.90 in 10.0 mi West 10.4 mph - N/A   Clear
9:15 PM 57.2 °F 28.4 °F 33% 29.90 in 10.0 mi WSW 9.2 mph - N/A   Clear
9:35 PM 57.2 °F 28.4 °F 33% 29.91 in 10.0 mi WSW 8.1 mph - N/A   Clear
10:15 PM 57.2 °F 26.6 °F 31% 29.91 in 10.0 mi WSW 8.1 mph - N/A   Clear
10:35 PM 55.4 °F 26.6 °F 33% 29.92 in 10.0 mi WSW 6.9 mph - N/A   Clear
10:55 PM 53.6 °F 28.4 °F 38% 29.92 in 10.0 mi WSW 6.9 mph - N/A   Clear
11:15 PM 55.4 °F 26.6 °F 33% 29.92 in 10.0 mi WSW 5.8 mph - N/A   Clear
11:35 PM 51.8 °F 30.2 °F 44% 29.91 in 10.0 mi WSW 4.6 mph - N/A   Clear